This is the latest recevied weather packets stored in our database for station/object KS5S. If no packets are shown the sender has not sent any weather packets the latest 10 day(s).
| Time | Temp. | Humidity | Pressure | Rain* | Wind** | Luminosity | Snow |
|---|---|---|---|---|---|---|---|
| 1777602865 | 16.11° C | 93% | 1012.2 hPa | 0 mm | - | 0 W/m² | - |
| 1777602560 | 16.11° C | 93% | 1012 hPa | 0 mm | - | 0 W/m² | - |
| 1777602256 | 16.11° C | 93% | 1012.3 hPa | 0 mm | - | 0 W/m² | - |
| 1777601952 | 16.11° C | 93% | 1012.1 hPa | 0 mm | - | 0 W/m² | - |
| 1777601647 | 16.11° C | 93% | 1011.5 hPa | 0 mm | - | 0 W/m² | - |
| 1777601343 | 16.11° C | 93% | 1011.9 hPa | 0 mm | - | 0 W/m² | - |
| 1777601040 | 16.11° C | 93% | 1011.9 hPa | 0 mm | - | 0 W/m² | - |
| 1777600736 | 16.11° C | 94% | 1011.3 hPa | 0 mm | - | 0 W/m² | - |
| 1777600433 | 16.11° C | 95% | 1011.1 hPa | 0 mm | - | 0 W/m² | - |
| 1777600128 | 16.11° C | 95% | 1011.4 hPa | 0 mm | - | 0 W/m² | - |
| 1777599824 | 16.11° C | 95% | 1011.5 hPa | 0 mm | - | 0 W/m² | - |
| 1777599520 | 16.11° C | 95% | 1012.1 hPa | 0 mm | - | 0 W/m² | - |
| 1777599217 | 16.11° C | 96% | 1012.4 hPa | 0 mm | - | 0 W/m² | - |
| 1777598913 | 16.11° C | 96% | 1012.5 hPa | 0 mm | - | 0 W/m² | - |
| 1777598610 | 16.11° C | 96% | 1012.5 hPa | 0 mm | - | 0 W/m² | - |
| 1777598306 | 16.11° C | 96% | 1012.1 hPa | 0 mm | - | 0 W/m² | - |
| 1777598004 | 16.11° C | 96% | 1012 hPa | 0 mm | - | 1 W/m² | - |
| 1777597702 | 15.56° C | 96% | 1012 hPa | 0 mm | - | 1 W/m² | - |
| 1777597394 | 15.56° C | 96% | 1012.1 hPa | 0 mm | - | 2 W/m² | - |
| 1777597089 | 15.56° C | 96% | 1012.4 hPa | 0 mm | - | 3 W/m² | - |
| 1777596786 | 15.56° C | 96% | 1011.9 hPa | 0 mm | - | 7 W/m² | - |
| 1777596482 | 15.56° C | 96% | 1011.9 hPa | 0 mm | - | 12 W/m² | - |
| 1777596179 | 15.56° C | 96% | 1011.8 hPa | 0 mm | - | 15 W/m² | - |
| 1777595875 | 15.56° C | 96% | 1011.9 hPa | 0 mm | - | 17 W/m² | - |
| 1777595570 | 15.56° C | 96% | 1011.9 hPa | 0 mm | - | 13 W/m² | - |
* Rain latest hour (hover to see other rain measurements)
** Current wind speed in m/s (hover to see current wind gust speed)